Hourly Data Report for December 04, 2017

TORONTO CITY
ONTARIO

43°40'00.000" N
79°24'00.000" W
112.50 m
6158355
71508
XTO

Download Data

Hourly Data (December 2017)
Hourly Data Report for December 4, 2017
TIME
LST
Temp Definition
°C
Dew Point Definition
°C
Rel Hum Definition
%
Precip. Amount Definition
mm

Wind Dir Definition
10's deg

Wind Spd Definition
km/h
Visibility Definition
km
Stn Press Definition
kPa
Hmdx Definition


Wind Chill Definition


Weather Definition


00:00 4.4 0.7 77 0.0 LegendMM LegendMM   101.10     LegendNANA
01:00 4.5 1.4 80 0.0 LegendMM LegendMM   101.06     LegendNANA
02:00 3.8 1.9 88 0.0 LegendMM LegendMM   101.07     LegendNANA
03:00 4.1 2.6 90 0.0 LegendMM LegendMM   101.13     LegendNANA
04:00 3.5 1.9 89 0.0 LegendMM LegendMM   101.17     LegendNANA
05:00 4.3 2.7 90 0.0 LegendMM LegendMM   101.17     LegendNANA
06:00 4.1 2.8 91 0.0 LegendMM LegendMM   101.16     LegendNANA
07:00 4.3 2.9 91 0.0 LegendMM LegendMM   101.20     LegendNANA
08:00 4.0 2.6 91 0.0 LegendMM LegendMM   101.19     LegendNANA
09:00 4.2 3.0 92 0.0 LegendMM LegendMM   101.15     LegendNANA
10:00 4.8 3.6 92 0.0 LegendMM LegendMM   101.13     LegendNANA
11:00 5.8 3.4 85 0.0 LegendMM LegendMM   100.99     LegendNANA
12:00 6.3 3.2 81 0.0 LegendMM LegendMM   100.91     LegendNANA
13:00 6.4 2.6 77 0.0 LegendMM LegendMM   100.72     LegendNANA
14:00 6.1 2.8 79 0.0 LegendMM LegendMM   100.59     LegendNANA
15:00 6.1 2.5 78 0.0 LegendMM LegendMM   100.50     LegendNANA
16:00 6.7 2.3 74 0.0 LegendMM LegendMM   100.41     LegendNANA
17:00 7.2 2.3 71 0.0 LegendMM LegendMM   100.38     LegendNANA
18:00 7.3 2.6 72 0.0 LegendMM LegendMM   100.29     LegendNANA
19:00 7.6 2.6 70 0.0 LegendMM LegendMM   100.21     LegendNANA
20:00 8.4 2.1 64 0.0 LegendMM LegendMM   100.06     LegendNANA
21:00 8.9 1.9 62 0.0 LegendMM LegendMM   99.94     LegendNANA
22:00 8.8 2.4 64 0.0 LegendMM LegendMM   99.91     LegendNANA
23:00 10.4 1.9 56 0.0 LegendMM LegendMM   99.83     LegendNANA

Notes on Data Quality.

Legend

  • E = Estimated
  • M = Missing
  • NA = Not Available*
  • [empty] = Indicates an unobserved value
Date modified: